Location: Berg
(47.2344°N, 9.5296°E)
Time: 10:18:08
(UTC+00:00)

Nauka - Pass Details

Date: 18 September 2021
Orbit: 417 x 423 km, 51.6° (Epoch: 24 October)

Event Time Altitude Azimuth Distance (km) Brightness Sun altitude
Rises 20:21:37 0° 266° (W) 2,363 ? -28.2°
Reaches altitude 10° 20:23:46 10° 273° (W) 1,501 ? -28.5°
Enters shadow 20:24:30 15° 277° (W) 1,223 ? -28.6°
